Miscellaneous Local Product
Issued by NWS Hastings, NE

Home | Current Version | Previous Version | Graphics & Text | Print | Product List | Glossary On
Versions: 1 2 3 4 5 6 7 8 9 10 11 12 13 14 15 16 17 18 19 20 21 22 23 24 25 26 27 28 29 30 31 32 33 34 35 36 37 38 39 40 41 42 43 44 45 46 47 48 49 50
000
AXUS43 KGID 180902
MISGRI

GID CWA HOURLY WEATHER ROUNDUP
NATIONAL WEATHER SERVICE HASTINGS NE
300 AM CST SAT FEB 18 2017

NOTE: "FAIR" INDICATES FEW OR NO CLOUDS BELOW 12,000 FEET WITH NO
SIGNIFICANT WEATHER AND/OR OBSTRUCTIONS TO VISIBILITY.

...SOUTH CENTRAL NEBRASKA...

CITY           SKY/WX    TMP DP  RH WIND       PRES   REMARKS
GRAND ISLAND   CLOUDY    32  27  81 NW5       29.76F WCI  27
HASTINGS       CLOUDY    37  27  67 NE5       29.77S WCI  33
KEARNEY        CLOUDY    34  21  60 CALM      29.77R
ORD            CLOUDY    27  22  81 CALM      29.77R
YORK           CLOUDY    32  28  86 N8        29.76S WCI  25
AURORA         CLOUDY    34  28  78 N6        29.76F WCI  29
LEXINGTON      CLOUDY    28  24  85 NW9       29.78S WCI  19
HOLDREGE       CLOUDY    34  25  71 NE3       29.76S
HEBRON         CLOUDY    32  29  89 NW3       29.76S

...NEBRASKA PANHANDLE...

CITY           SKY/WX    TMP DP  RH WIND       PRES   REMARKS
CHADRON        CLOUDY    33  28  81 CALM      29.73F
ALLIANCE       CLOUDY    32  26  78 CALM      29.76S
SCOTTSBLUFF    CLOUDY    36  24  62 E7        29.76S WCI  30
SIDNEY         CLOUDY    38  24  57 S9        29.79R WCI  31

...WESTERN AND NORTH CENTRAL NEBRASKA...

CITY           SKY/WX    TMP DP  RH WIND       PRES   REMARKS
VALENTINE        N/A     26  22  84 W5        29.78S WCI  20
AINSWORTH      PTCLDY    31  28  87 SW3       29.78S
ONEILL         CLOUDY    35  28  76 W5        29.77S WCI  31
BROKEN BOW     CLOUDY    27  24  89 CALM      29.77S
IMPERIAL       CLOUDY    33  24  69 W3        29.79R
NORTH PLATTE   CLOUDY    25  22  88 CALM      29.78R
MCCOOK         PTCLDY    31  25  78 NW7       29.78R WCI  24

...EASTERN NEBRASKA...

CITY           SKY/WX    TMP DP  RH WIND       PRES   REMARKS
NORFOLK        CLOUDY    31  26  82 W5        29.76S WCI  26
SO SIOUX CITY  CLEAR     32  30  92 NW7       29.75F WCI  26
TEKAMAH        CLEAR     37  32  82 NW3       29.75S
COLUMBUS       CLOUDY    28  25  86 CALM      29.77S
ALBION         CLOUDY    29  26  88 NW6       29.77S WCI  23
OMAHA EPPLEY   CLEAR     38  32  79 N9        29.74S WCI  31
OFFUTT AFB     CLEAR     30  30 100 NW3       29.74S
MILLARD        CLEAR     44  36  72 NW3       29.75R
LINCOLN        CLOUDY    34  30  85 CALM      29.77S
NEBRASKA CITY  CLOUDY    42  31  65 NW7       29.75S
BEATRICE       CLOUDY    33  28  85 CALM      29.76S
FALLS CITY     CLEAR     39  31  72 NW5       29.74R

...NORTHERN KANSAS...

CITY           SKY/WX    TMP DP  RH WIND       PRES   REMARKS
GOODLAND       CLOUDY    31  24  75 NE5       29.78R WCI  26
HILL CITY      CLOUDY    42  30  62 NE12      29.73F
NORTON         SUNNY     34  25  69 N7        29.75  WCI  28
PHILLIPSBURG   CLEAR     39  28  65 N7        29.75S WCI  34
SMITH CENTER   CLEAR     39  30  70 NE10      29.75S WCI  32
HAYS           CLOUDY    33  28  81 CALM      29.72R
RUSSELL        CLEAR     40  36  86 E5        29.71S
CONCORDIA      CLEAR     42  34  73 CALM      29.74R
SALINA         CLEAR     42  35  76 CALM      29.75R
TOPEKA         CLEAR     44  36  73 CALM      29.76S



USA.gov is the U.S. government's official web portal to all federal, state and local government web resources and services.